FW1477 Weather Reports


time (UTC)temp
C
wind
direction
speed
KPH
gust
KPH
rain 1hr
cm
rain 24hr
cm
rain mn
cm
humidity
%
barometer
mb
20260506020016 24 0.0 0.0 0.00 0.00 0.00 18 1016.5
20260506015036 25 0.0 0.0 0.00 0.00 0.00 17 1016.7
20260506014016 25 0.0 0.0 0.00 0.00 0.00 16 1016.4
20260506013017 26 0.0 0.0 0.00 0.00 0.00 13 1016.4
20260506010016 26 0.0 0.0 0.00 0.00 0.00 10 1016.1
20260506005017 27 0.0 0.0 0.00 0.00 0.00 9 1016.4
20260506004016 27 0.0 0.0 0.00 0.00 0.00 9 1016.2
20260506003015 27 0.0 0.0 0.00 0.00 0.00 9 1016.1
20260506002015 28 0.0 0.0 0.00 0.00 0.00 8 1016.3
20260506001016 28 0.0 0.0 0.00 0.00 0.00 9 1016.2
20260506000036 28 0.0 0.0 0.00 0.00 0.00 9 1016.2
20260505235036 28 0.0 0.0 0.00 0.00 0.00 8 1016.0
20260505234017 28 0.0 0.0 0.00 0.00 0.00 9 1016.0
20260505233015 28 0.0 0.0 0.00 0.00 0.00 8 1015.9
20260505230016 29 0.0 0.0 0.00 0.00 0.00 9 1016.3
20260505225015 29 0.0 0.0 0.00 0.00 0.00 7 1016.4
20260505224015 30 0.0 0.0 0.00 0.00 0.00 8 1016.4
20260505223016 30 0.0 0.0 0.00 0.00 0.00 8 1016.4
20260505222015 30 0.0 0.0 0.00 0.00 0.00 8 1016.5
20260505221015 30 0.0 0.0 0.00 0.00 0.00 7 1016.5
20260505220036 30 0.0 0.0 0.00 0.00 0.00 7 1016.6
20260505215015 30 0.0 0.0 0.00 0.00 0.00 7 1017.0
20260505214015 30 0.0 0.0 0.00 0.00 0.00 7 1016.6
20260505213037 30 0.0 0.0 0.00 0.00 0.00 7 1017.2
20260505212015 30 0.0 0.0 0.00 0.00 0.00 7 1017.0
20260505211015 30 0.0 0.0 0.00 0.00 0.00 7 1017.0
20260505210016 30 0.0 0.0 0.00 0.00 0.00 7 1017.3
20260505205037 30 0.0 0.0 0.00 0.00 0.00 7 1017.7
20260505204017 30 0.0 0.0 0.00 0.00 0.00 7 1017.8
20260505203017 30 0.0 0.0 0.00 0.00 0.00 7 1017.5
20260505202057 30 0.0 0.0 0.00 0.00 0.00 7 1017.6
20260505201213 30 0.0 0.0 0.00 0.00 0.00 6 1017.7
20260505200017 30 0.0 0.0 0.00 0.00 0.00 7 1017.9
20260505195037 30 0.0 0.0 0.00 0.00 0.00 6 1017.9
20260505194017 30 0.0 0.0 0.00 0.00 0.00 6 1017.9
20260505193017 30 0.0 0.0 0.00 0.00 0.00 6 1018.1
20260505192017 29 0.0 0.0 0.00 0.00 0.00 6 1018.2
20260505191037 29 0.0 0.0 0.00 0.00 0.00 6 1018.2
20260505190017 29 0.0 0.0 0.00 0.00 0.00 6 1018.3
20260505185017 28 0.0 0.0 0.00 0.00 0.00 6 1018.1
20260505184016 28 0.0 0.0 0.00 0.00 0.00 6 1018.3
20260505183038 28 0.0 0.0 0.00 0.00 0.00 5 1018.2
20260505182017 28 0.0 0.0 0.00 0.00 0.00 5 1018.4
20260505181017 28 0.0 0.0 0.00 0.00 0.00 5 1018.5
20260505180016 28 0.0 0.0 0.00 0.00 0.00 6 1018.7
20260505175016 27 0.0 0.0 0.00 0.00 0.00 6 1018.3
20260505174017 27 0.0 0.0 0.00 0.00 0.00 6 1018.3
20260505173026 27 0.0 0.0 0.00 0.00 0.00 6 1018.5
20260505172017 27 0.0 0.0 0.00 0.00 0.00 6 1018.7
20260505171016 26 0.0 0.0 0.00 0.00 0.00 5 1018.1
20260505170017 26 0.0 0.0 0.00 0.00 0.00 6 1018.2
20260505165017 26 0.0 0.0 0.00 0.00 0.00 6 1018.5
20260505164016 26 0.0 0.0 0.00 0.00 0.00 6 1018.6
20260505163016 26 0.0 0.0 0.00 0.00 0.00 5 1018.5
20260505162058 25 0.0 0.0 0.00 0.00 0.00 6 1018.1
20260505161016 25 0.0 0.0 0.00 0.00 0.00 6 1018.0
20260505153016 21 0.0 0.0 0.00 0.00 0.00 14 1017.4
20260505152037 21 0.0 0.0 0.00 0.00 0.00 16 1017.1
20260505151016 20 0.0 0.0 0.00 0.00 0.00 19 1017.3
20260505124036 13 0.0 1.6 0.00 0.00 0.00 58 1014.3
20260505123016 13 0.0 0.0 0.00 0.00 0.00 58 1014.2
20260505122015 13 248 3.2 12.9 0.00 0.00 0.00 58 1014.5
20260505121015 13 248 9.7 30.6 0.00 0.00 0.00 59 1014.4
20260505120016 13 248 14.5 30.6 0.00 0.00 0.00 62 1014.1
20260505115016 13 248 11.3 25.7 0.00 0.00 0.00 62 1014.1
20260505114015 13 248 8.0 30.6 0.00 0.00 0.00 62 1014.1
20260505113015 13 248 8.0 25.7 0.00 0.00 0.00 62 1014.0
20260505112016 13 248 9.7 30.6 0.00 0.00 0.00 60 1013.9
20260505111016 14 248 8.0 25.7 0.00 0.00 0.00 60 1013.9
20260505102016 15 248 6.4 24.1 0.00 0.00 0.00 58 1014.2
20260505101015 15 248 9.7 24.1 0.00 0.00 0.00 59 1014.2
20260505100016 15 248 8.0 20.9 0.00 0.00 0.00 57 1014.4
20260505095016 15 270 3.2 12.9 0.00 0.00 0.00 57 1014.3
20260505094015 15 248 6.4 24.1 0.00 0.00 0.00 56 1014.3
20260505093035 15 248 4.8 17.7 0.00 0.00 0.00 56 1014.2
20260505092015 15 248 9.7 25.7 0.00 0.00 0.00 56 1014.3
20260505090017 16 248 4.8 16.1 0.00 0.00 0.00 55 1014.8
20260505085017 16 270 8.0 17.7 0.00 0.00 0.00 55 1014.8
20260505084018 16 248 9.7 19.3 0.00 0.00 0.00 55 1014.9
20260505083017 16 248 4.8 17.7 0.00 0.00 0.00 56 1014.9
20260505082017 16 248 3.2 17.7 0.00 0.00 0.00 56 1015.2
20260505081017 16 248 1.6 16.1 0.00 0.00 0.00 56 1015.3
20260505080018 16 248 1.6 17.7 0.00 0.00 0.00 57 1015.2
20260505075017 17 248 1.6 12.9 0.00 0.00 0.00 57 1015.3
20260505074017 17 248 3.2 17.7 0.00 0.00 0.00 58 1015.6
20260505073017 17 248 1.6 12.9 0.00 0.00 0.00 58 1015.7
20260505064016 17 248 12.9 33.8 0.00 0.00 0.00 56 1015.9
20260505063016 17 248 8.0 30.6 0.00 0.00 0.00 56 1015.9
20260505062016 17 248 6.4 30.6 0.00 0.00 0.00 55 1016.0
20260505061035 18 248 4.8 17.7 0.00 0.00 0.00 54 1016.0
20260505060016 18 248 4.8 29.0 0.00 0.00 0.00 53 1016.5
20260505055016 18 225 4.8 20.9 0.00 0.00 0.00 51 1016.3
20260505054017 18 248 3.2 12.9 0.00 0.00 0.00 50 1016.3
20260505053016 18 248 8.0 25.7 0.00 0.00 0.00 49 1016.3
20260505052016 18 248 6.4 35.4 0.00 0.00 0.00 48 1016.2
20260505051016 19 248 6.4 25.7 0.00 0.00 0.00 47 1016.6
20260505041016 20 248 22.5 43.5 0.00 0.00 0.00 39 1015.7
20260505040015 20 248 24.1 48.3 0.00 0.00 0.00 38 1016.0
20260505035016 20 248 14.5 35.4 0.00 0.00 0.00 36 1015.9
20260505034020 21 248 12.9 29.0 0.00 0.00 0.00 35 1016.0
20260505033015 21 248 12.9 35.4 0.00 0.00 0.00 33 1015.8
20260505032016 21 248 12.9 38.6 0.00 0.00 0.00 32 1016.1
20260505031037 21 248 17.7 45.1 0.00 0.00 0.00 31 1016.2
20260505030016 22 248 14.5 37.0 0.00 0.00 0.00 29 1016.0
20260505025015 22 248 17.7 45.1 0.00 0.00 0.00 28 1015.9
20260505024015 22 248 1.6 29.0 0.00 0.00 0.00 27 1015.8
20260505023016 22 0.0 0.0 0.00 0.00 0.00 25 1016.1
20260505022016 23 0.0 0.0 0.00 0.00 0.00 23 1015.9
20260505021016 23 0.0 0.0 0.00 0.00 0.00 22 1015.7